Location: Wildlife_Club
(35.6000°N, 81.4330°W)
Time: 21:59:52
(UTC-04:00)

A-11 Canister half - Pass Details

Date: 26 June 2019
Orbit: 1514 x 1686 km, 47.2° (Epoch: 17 August)

Event Time Altitude Azimuth Distance (km) Brightness Sun altitude
Rises 16:02:48 0° 302° (WNW) 4,830 12.0 54.5°
Reaches altitude 10° 16:06:01 10° 305° (NW) 3,819 11.6 53.9°
Maximum altitude 16:15:39 66° 27° (NNE) 1,680 9.9 52.0°
Drops below altitude 10° 16:24:54 10° 109° (ESE) 3,690 10.8 50.1°
Sets 16:27:57 0° 113° (ESE) 4,659 11.2 49.5°
